El Dorado, AR

2:35 AM CDT on July 27, 2017 (GMT -0500)
South Arkansas Regional At Goodwin

Weather History for KELD - April, 2013

Change the Weather History Date:

Monday, April 29, 2013

  Actual Average Record
Temperature  
Mean Temperature 69 °F 67 °F  
Max Temperature 85 °F 79 °F 93 °F (1955)
Min Temperature 52 °F 55 °F 39 °F (1965)
Degree Days  
Heating Degree Days 0 2  
Month to date heating degree days 178 116  
Since 1 July heating degree days 2651 2652  
Cooling Degree Days 4 4  
Month to date cooling degree days 63 67  
Year to date cooling degree days 75 95  
Growing Degree Days 18 (Base 50)    
Moisture  
Dew Point 56 °F    
Average Humidity 67    
Maximum Humidity 100    
Minimum Humidity 34    
Precipitation  
Precipitation 0.00 in 0.14 in 2.08 in (1953)
Month to date precipitation 4.31 3.95  
Year to date precipitation 14.03 17.79  
Snow  
Snow 0.00 in - - ()
Month to date snowfall 0.0  
Since 1 July snowfall 0.1  
Snow Depth 0.00 in    
Sea Level Pressure  
Sea Level Pressure 29.91 in    
Wind  
Wind Speed 1 mph (SSE)    
Max Wind Speed 10 mph    
Max Gust Speed 15 mph    
Visibility 10 miles    
Events      
T = Trace of Precipitation, MM = Missing Value Source: NWS Daily Summary

Daily Weather History Graph

Daily Weather History Graph

Search for Another Location

Airport or City:

Trip Planner

Search our weather history database for the weather conditions in past years. The results will help you decide how hot, cold, wet, or windy it might be!

Date:

Astronomy

Apr. 29, 2013 Rise Set
Actual Time 6:25 AM CDT 7:52 PM CDT
Civil Twilight 5:58 AM CDT 8:18 PM CDT
Nautical Twilight 5:27 AM CDT 8:50 PM CDT
Astronomical Twilight 4:54 AM CDT 9:23 PM CDT
Moon No Moon Rise 9:51 AM CDT (4/29)
Length of Visible Light 14h 19m
Length of Day
13h 27m
Waning Gibbous, 80% of the Moon is Illuminated
Apr 29
Waning Gibbous
May 2
Last Quarter
May 9
New
May 17
First Quarter
May 24
Full

Hourly Weather History & Observations

Time (CDT) Temp. Heat Index Dew Point Humidity Pressure Visibility Wind Dir Wind Speed Gust Speed Precip Events Conditions
12:53 AM 57.0 °F - 55.0 °F 93% 29.95 in 10.0 mi Calm Calm - N/A   Clear
1:53 AM 55.9 °F - 55.0 °F 97% 29.94 in 10.0 mi Calm Calm - N/A   Clear
2:53 AM 55.0 °F - 53.1 °F 93% 29.91 in 8.0 mi Calm Calm - N/A   Clear
3:53 AM 53.1 °F - 52.0 °F 96% 29.91 in 8.0 mi Calm Calm - N/A   Clear
4:53 AM 53.1 °F - 51.1 °F 93% 29.91 in 10.0 mi Calm Calm - N/A   Clear
5:53 AM 52.0 °F - 51.1 °F 97% 29.92 in 10.0 mi Calm Calm - N/A   Clear
6:53 AM 53.1 °F - 51.1 °F 93% 29.95 in 10.0 mi Calm Calm - N/A   Clear
7:53 AM 59.0 °F - 57.0 °F 93% 29.97 in 7.0 mi Calm Calm - N/A   Clear
8:53 AM 63.0 °F - 60.1 °F 90% 29.97 in 10.0 mi Calm Calm - N/A   Clear
9:53 AM 71.1 °F - 62.1 °F 73% 29.97 in 10.0 mi Calm Calm - N/A   Clear
10:53 AM 75.9 °F - 63.0 °F 64% 29.97 in 10.0 mi Calm Calm - N/A   Clear
11:53 AM 79.0 °F - 62.1 °F 56% 29.96 in 10.0 mi Calm Calm - N/A   Clear
12:53 PM 81.0 °F 81.6 °F 60.1 °F 49% 29.94 in 10.0 mi Calm Calm - N/A   Clear
1:53 PM 82.9 °F 82.1 °F 55.9 °F 39% 29.92 in 10.0 mi Variable 3.5 mph - N/A   Clear
2:53 PM 84.0 °F 82.5 °F 53.1 °F 34% 29.90 in 10.0 mi Variable 3.5 mph - N/A   Clear
3:53 PM 84.0 °F 82.9 °F 55.0 °F 37% 29.88 in 10.0 mi Variable 5.8 mph - N/A   Mostly Cloudy
4:53 PM 84.0 °F 82.6 °F 54.0 °F 35% 29.86 in 10.0 mi SSE 5.8 mph - N/A   Mostly Cloudy
5:53 PM 84.0 °F 82.6 °F 54.0 °F 35% 29.85 in 10.0 mi Variable 3.5 mph - N/A   Clear
6:53 PM 81.0 °F 80.5 °F 54.0 °F 39% 29.85 in 10.0 mi SSE 4.6 mph - N/A   Clear
7:53 PM 75.0 °F - 57.0 °F 53% 29.85 in 10.0 mi SE 4.6 mph - N/A   Clear
8:53 PM 66.0 °F - 59.0 °F 78% 29.87 in 10.0 mi Calm Calm - N/A   Clear
9:53 PM 66.0 °F - 59.0 °F 78% 29.88 in 10.0 mi Calm Calm - N/A   Clear
10:53 PM 63.0 °F - 59.0 °F 87% 29.89 in 10.0 mi Calm Calm - N/A   Clear
11:53 PM 61.0 °F - 57.9 °F 90% 29.88 in 10.0 mi Calm Calm - N/A   Clear